Regional Weather Roundup
Issued by NWS Green Bay, WI

Home | Current Version | Previous Version | Graphics & Text | Print | Product List | Glossary Off
Versions: 1 2 3 4 5 6 7 8 9 10 11 12 13 14 15 16 17 18 19 20 21 22 23 24 25 26 27 28 29 30 31 32 33 34 35 36 37 38 39 40 41 42 43 44 45 46 47 48 49 50

000
ASUS43 KGRB 241959
RWRGRB

NORTH-CENTRAL AND NORTHEAST WISCONSIN REGIONAL WEATHER ROUNDUP
NATIONAL WEATHER SERVICE GREEN BAY WI
300 PM CDT FRI APR 24 2015

WIZ005-009-010>012-018-019-242100-
NORTH CENTRAL WISCONSIN

CITY           SKY/WX    TMP DP  RH WIND       PRES   REMARKS
IRONWOOD       CLOUDY    46  25  42 SW7       29.94F
MANITOWISH WTR NOT AVBL
ARBOR VITAE    NOT AVBL
EAGLE RIVER    NOT AVBL
LAND O LAKES   NOT AVBL
RHINELANDER    CLOUDY    45  21  38 E3        29.99S
PHILLIPS       CLOUDY    44  25  48 NE9G16    29.96F
ANTIGO         NOT AVBL
TOMAHAWK       NOT AVBL
MERRILL        NOT AVBL
$$

WIZ013-073-242100-
NORTHEAST WISCONSIN

CITY           SKY/WX    TMP DP  RH WIND       PRES   REMARKS
IRON MOUNTAIN  MOSUNNY   51  15  23 E3        29.97F
MARINETTE      MOSUNNY   45  25  45 SE9       30.05S
$$

WIZ017-030-035>037-045-242100-
CENTRAL WISCONSIN

CITY           SKY/WX    TMP DP  RH WIND       PRES   REMARKS
MEDFORD        NOT AVBL
WAUSAU         CLOUDY    54  16  22 SE5       29.93F
MOSINEE        CLOUDY    55  18  22 SE10      29.96F
MARSHFIELD     CLOUDY    57  19  22 SE13G18   29.92F
WISC RAPIDS    PTSUNNY   58  14  17 S8        29.94F
STEVENS POINT  NOT AVBL
WAUPACA        CLOUDY    60  19  20 E9        29.97F
SHAWANO        MOSUNNY   57  23  27 E8        29.99F
CLINTONVILLE   PTSUNNY   55  23  28 SE12G17   29.98F
$$

WIZ038-039-048-051-242100-
FOX VALLEY

CITY           SKY/WX    TMP DP  RH WIND       PRES   REMARKS
NWS GREEN BAY  PTSUNNY   53  23  31 SE8       30.01F
APPLETON       MOSUNNY   54  21  28 E14       29.99F
OSHKOSH        MOSUNNY   55  27  34 E16       29.97F
FOND DU LAC    MOSUNNY   56  25  30 SE12      29.97F
$$

WIZ022-050-052-242100-
EAST CENTRAL WISCONSIN

CITY           SKY/WX    TMP DP  RH WIND       PRES   REMARKS
STURGEON BAY   MOSUNNY   41  19  42 SE7       30.08R
MANITOWOC      NOT AVBL
SHEBOYGAN      SUNNY     48  19  31 E13       30.02F
$$

LMZ563-521-522-541>543-242100-
LAKESHORE

STATION/POSITION TIME  TEMP    WIND        PRES    VSBY  WAVE
                       AIR SEA DIR/SP/G                  HT/PER
                 (UTC) (F)     (DEG/KT/KT) (MB)    (MI)  (FT/S)
SHEBOYGAN LKSHOR 1900   38     150/  7/  7 1018.7F
KEWAUNEE LKSHORE 1900   38     100/  5/  8 1017.2F
NORTHPORT PIER   1900   36     120/  9/ 10 1018.6S
STURGEON BAY CG  1900   40 41  100/  9     1019.2   3 1/2
CHAMBERS ISLAND  1900   41      50/  7/ 10 1017.9F
MENOMINEE LKSHOR 1900   39      40/  7/  8 1018.1F
$$


USA.gov is the U.S. government's official web portal to all federal, state and local government web resources and services.